Deer Park, WA

7:56 AM PDT on October 20, 2017 (GMT -0700)
Deer Park

Weather History for KDEW - June, 2013

Change the Weather History Date:

Friday, June 14, 2013

  Actual Average Record
Temperature  
Mean Temperature 54 °F 58 °F  
Max Temperature 69 °F 73 °F 87 °F (1999)
Min Temperature 38 °F 45 °F 35 °F (2017)
Degree Days  
Heating Degree Days 11 7  
Month to date heating degree days 115 112  
Since 1 June heating degree days 115 112  
Since 1 July heating degree days 6928 7326  
Cooling Degree Days 0 0  
Month to date cooling degree days 2 0  
Year to date cooling degree days 5 3  
Since 1 June cooling degree days 2 0  
Growing Degree Days 2 (Base 50)    
Moisture  
Dew Point 40 °F    
Average Humidity 66    
Maximum Humidity 100    
Minimum Humidity 32    
Precipitation  
Precipitation 0.00 in 0.07 in 0.69 in (2006)
Month to date precipitation 0.37 1.02  
Year to date precipitation 6.74 10.76  
Sea Level Pressure  
Sea Level Pressure 30.10 in    
Wind  
Wind Speed 7 mph (SSW)    
Max Wind Speed 16 mph    
Max Gust Speed 29 mph    
Visibility 9 miles    
Events      
T = Trace of Precipitation, MM = Missing Value Source: NWS Daily Summary

Daily Weather History Graph

Daily Weather History Graph

Search for Another Location

Airport or City:

Trip Planner

Search our weather history database for the weather conditions in past years. The results will help you decide how hot, cold, wet, or windy it might be!

Date:

Astronomy

Jun. 14, 2013 Rise Set
Actual Time 4:49 AM PDT 8:50 PM PDT
Civil Twilight 4:08 AM PDT 9:31 PM PDT
Nautical Twilight 3:11 AM PDT 10:29 PM PDT
Astronomical Twilight 1:36 AM PDT 12:05 AM PDT
Moon 10:52 AM PDT (6/14) No Moon Set
Length of Visible Light 17h 23m
Length of Day
16h 00m
Waxing Crescent, 31% of the Moon is Illuminated
Jun 14
Waxing Crescent
Jun 16
First Quarter
Jun 23
Full
Jun 29
Last Quarter
Jul 8
New

Hourly Weather History & Observations

Time (PDT) Temp. Windchill Dew Point Humidity Pressure Visibility Wind Dir Wind Speed Gust Speed Precip Events Conditions
12:53 AM 39.9 °F - 39.0 °F 97% 30.07 in 10.0 mi Calm Calm - 0.01 in   Clear
1:00 AM 39.2 °F - 39.2 °F 100% 30.06 in 2.0 mi Calm Calm - N/A   Partly Cloudy
1:07 AM 39.2 °F - 39.2 °F 100% 30.06 in 1.5 mi Calm Calm - N/A   Partly Cloudy
1:11 AM 39.2 °F - 37.4 °F 93% 30.06 in 3.0 mi Calm Calm - N/A   Partly Cloudy
1:53 AM 39.9 °F 37.8 °F 39.0 °F 97% 30.07 in 10.0 mi NNW 3.5 mph - N/A   Mostly Cloudy
2:25 AM 37.4 °F - 35.6 °F 93% 30.06 in 10.0 mi Calm Calm - N/A   Mostly Cloudy
2:53 AM 39.9 °F 36.7 °F 39.0 °F 97% 30.08 in 10.0 mi SE 4.6 mph - N/A   Mostly Cloudy
3:53 AM 43.0 °F 37.7 °F 41.0 °F 93% 30.09 in 10.0 mi SSE 9.2 mph - N/A   Clear
4:53 AM 41.0 °F - 39.0 °F 93% 30.11 in 10.0 mi North - - N/A   Clear
5:53 AM 43.0 °F 38.8 °F 39.9 °F 89% 30.12 in 10.0 mi SSE 6.9 mph - N/A   Partly Cloudy
6:53 AM 46.0 °F 42.5 °F 42.1 °F 86% 30.13 in 10.0 mi South 6.9 mph - N/A   Partly Cloudy
7:53 AM 48.0 °F - 43.0 °F 83% 30.14 in 10.0 mi South 6.9 mph - N/A   Mostly Cloudy
8:53 AM 50.0 °F - 43.0 °F 77% 30.16 in 10.0 mi SSW 4.6 mph - N/A   Overcast
9:04 AM 50.0 °F - 42.8 °F 76% 30.15 in 10.0 mi SSW 6.9 mph - N/A   Overcast
9:30 AM 51.8 °F - 42.8 °F 71% 30.15 in 10.0 mi South 5.8 mph - N/A   Mostly Cloudy
9:53 AM 53.1 °F - 43.0 °F 69% 30.16 in 10.0 mi SSW 8.1 mph - N/A   Overcast
10:53 AM 55.0 °F - 42.1 °F 62% 30.16 in 10.0 mi North - - N/A   Unknown
11:53 AM 59.0 °F - 43.0 °F 55% 30.15 in 10.0 mi North - - N/A   Unknown
12:53 PM 61.0 °F - 42.1 °F 50% 30.14 in 10.0 mi South 6.9 mph - N/A   Overcast
1:53 PM 63.0 °F - 39.0 °F 41% 30.13 in 10.0 mi SSW 12.7 mph 16.1 mph N/A   Overcast
2:53 PM 64.0 °F - 37.9 °F 38% 30.11 in 10.0 mi WSW 10.4 mph - N/A   Overcast
3:53 PM 64.9 °F - 37.9 °F 37% 30.10 in 10.0 mi SW 15.0 mph 18.4 mph N/A   Overcast
4:53 PM 68.0 °F - 37.0 °F 32% 30.09 in 10.0 mi WSW 13.8 mph 19.6 mph N/A   Overcast
5:53 PM 68.0 °F - 37.0 °F 32% 30.07 in 10.0 mi SW 16.1 mph 20.7 mph N/A   Mostly Cloudy
6:53 PM 66.0 °F - 37.0 °F 34% 30.06 in 10.0 mi South 9.2 mph - N/A   Clear
7:53 PM 64.9 °F - 37.9 °F 37% 30.06 in 10.0 mi SSW 6.9 mph - N/A   Clear
8:53 PM 53.1 °F - 43.0 °F 69% 30.08 in 10.0 mi North - - N/A   Clear
9:53 PM 48.0 °F - 41.0 °F 77% 30.08 in 10.0 mi ESE 3.5 mph - N/A   Clear
10:53 PM 46.0 °F - 39.0 °F 76% 30.09 in 10.0 mi Calm Calm - N/A   Clear
11:53 PM 42.1 °F - 37.9 °F 85% 30.09 in 10.0 mi Calm Calm - N/A   Clear